Location: Berg
(48.5667°N, 13.9833°E)
Time: 16:34:35
(UTC+00:00)

ASTEX 1 - Pass Details

Date: 09 April 2020
Orbit: 721 x 743 km, 92.7° (Epoch: 03 June)

Event Time Altitude Azimuth Distance (km) Brightness Sun altitude
Exits shadow 21:49:59 43° 300° (WNW) 1,041 4.4 -31.0°
Drops below altitude 10° 21:53:55 10° 344° (NNW) 2,250 6.8 -31.3°
Sets 21:56:18 0° 350° (N) 3,173 7.8 -31.4°
